User: anonymous   Login
Location: Unspecified
(0.0000°N, 0.0000°E)
Time: 02:56:31
(UTC+00:00)
Language:

ONEWEB-0704 - Orbit

View from above orbital plane
View from above orbital plane
View from above satellite
View from above satellite

Ground track
Ground track

The orbit is defined by the following mean orbital elements,

1 61609U          26145.46763701 +.00000000 +00000-0 +20992-2 0 00001
2 61609  87.8872  40.7754 0001148 114.4642 245.6605 13.10373482    07
Epoch (UTC): 25 May 2026 11:13:23
Eccentricity: 0.0001148
inclination: 87.8872°
perigee height: 1221 km
apogee height: 1223 km
right ascension of ascending node: 40.7754°
argument of perigee: 114.4642°
revolutions per day: 13.10373482
mean anomaly at epoch: 245.6605°

The dashed part of the orbit path shows where the satellite is in the earth's shadow,  

DLR